Home   Weather   Seevetal   Past weeks

Flag for Germany Past Weather in Seevetal, Lower Saxony, Germany — Yesterday and Last 2 Weeks

Now
57 °F

Light rain. Clear.


Feels Like: 57 °F
Forecast: 57 / 66 °F
Wind: 2 mph from North

Location: Hamburg-Fuhlsbuettel

Current Time: Sep 27, 2016 at 2:23:13 AM

Latest Report: Sep 27, 2016 at 1:50 AM


Visibility: N/A

Pressure: 30.24 "Hg

Humidity: 94%

Dew Point: 55 °F

Location of SeevetalLocation

Past Weather in Seevetal — Graph

°F

Seevetal Temperature Yesterday

Maximum temperature yesterday: 68 °F (at 1:50 PM)
Minimum temperature yesterday: 54 °F (at 2:20 AM)
Average temperature yesterday: 61 °F

High & Low Weather Summary for the Past Weeks

 TemperatureHumidityPressure
High86 °F (Sep 13, 1:50 PM)100% (Sep 12, 2:50 AM)30.27 "Hg (Sep 12, 2:50 AM)
Low46 °F (Sep 19, 3:20 AM)29% (Sep 13, 5:20 PM)29.89 "Hg (Sep 16, 3:50 AM)
Average63 °F75%30.08 "Hg
* Reported Sep 12 1:20 AM — Sep 27 1:20 AM, Seevetal, Weather by CustomWeather, © 2016

Note: Actual official high and low records may vary slightly from our data, if they occured in-between our weather recording intervals... More about our weather records

Advertising

Seevetal Weather History for the Previous 24 Hours

Scroll right to see more
 ConditionsComfort  
Time TempWeatherWind HumidityBarometerVisibility
1:20 AM
Tue, Sep 27
57 °FClear.2 mph94%30.24 "Hg10 mi
12:50 AM57 °FClear.2 mph94%30.24 "Hg10 mi
12:20 AM57 °FClear.6 mph94%30.21 "Hg10 mi
11:50 PM
Mon, Sep 26
59 °FPassing clouds.3 mph94%30.21 "HgN/A
11:20 PM59 °FClear.3 mph94%30.21 "Hg10 mi
10:50 PM59 °FClear.1 mph94%30.21 "Hg10 mi
10:20 PM61 °FLight rain. Passing clouds.3 mph88%30.21 "HgN/A
9:50 PM61 °FLight rain. Passing clouds.3 mph88%30.24 "HgN/A
9:20 PM61 °FLight rain. Passing clouds.2 mph88%30.24 "HgN/A
8:50 PM61 °FPartly cloudy.3 mph88%30.21 "HgN/A
8:20 PM61 °FPartly cloudy.1 mph88%30.21 "HgN/A
7:50 PM61 °FClear.2 mph83%30.21 "Hg10 mi
7:20 PM63 °FPassing clouds.5 mph77%30.21 "HgN/A
6:50 PM63 °FPartly sunny.2 mph77%30.21 "HgN/A
6:20 PM64 °FPartly sunny.5 mph73%30.21 "HgN/A
5:50 PM64 °FPartly sunny.5 mph73%30.18 "HgN/A
5:20 PM66 °FScattered clouds.7 mph68%30.18 "HgN/A
4:50 PM66 °FScattered clouds.7 mph68%30.18 "HgN/A
4:20 PM66 °FScattered clouds.6 mph64%30.18 "HgN/A
3:50 PM66 °FPartly sunny.6 mph73%30.18 "HgN/A
3:20 PM66 °FPartly sunny.6 mph68%30.18 "HgN/A
2:50 PM66 °FPartly sunny.6 mph68%30.18 "HgN/A
2:20 PM68 °FPartly sunny.3 mph64%30.18 "HgN/A
1:50 PM68 °FScattered clouds.3 mph64%30.18 "HgN/A
1:20 PM66 °FScattered clouds.7 mph73%30.18 "HgN/A
12:50 PM66 °FScattered clouds.6 mph68%30.18 "HgN/A
12:20 PM66 °FScattered clouds.6 mph73%30.18 "HgN/A
11:50 AM64 °FPassing clouds.5 mph83%30.18 "HgN/A
11:20 AM63 °FPartly sunny.5 mph83%30.18 "HgN/A
10:50 AM61 °FPartly sunny.5 mph94%30.18 "HgN/A
10:20 AM61 °FPartly sunny.3 mph94%30.18 "HgN/A
9:50 AM61 °FPartly sunny.5 mph94%30.18 "HgN/A
9:20 AM59 °FPartly sunny.6 mph100%30.15 "HgN/A
8:50 AM59 °FPartly sunny.3 mph100%30.15 "HgN/A
8:20 AM59 °FPartly sunny.2 mph100%30.15 "HgN/A
7:50 AM59 °FPartly sunny.5 mph94%30.15 "HgN/A
7:20 AM59 °FPartly sunny.5 mph94%30.15 "HgN/A
6:50 AM59 °FLight rain. Partly cloudy.7 mph94%30.15 "HgN/A
6:20 AM59 °FLight rain. Partly cloudy.6 mph100%30.12 "HgN/A
5:50 AM61 °FPartly cloudy.3 mph94%30.12 "HgN/A
5:20 AM59 °FPartly cloudy.6 mph94%30.12 "HgN/A
4:50 AM61 °FPassing clouds.8 mph94%30.12 "HgN/A
4:20 AM55 °FPartly cloudy.2 mph94%30.12 "HgN/A
3:50 AM54 °FPartly cloudy.1 mph88%30.09 "HgN/A
3:20 AM54 °FPartly cloudy.No wind94%30.09 "HgN/A
2:50 AM54 °FPassing clouds.1 mph94%30.09 "HgN/A
2:20 AM54 °FPassing clouds.1 mph94%30.09 "HgN/A
Weather by CustomWeather, © 2016

See weather overviewHow to use our weather pages